Year,Month,Day,Hour,Minute,Value (Times are PST for temperature in C)
2017,09,28,00,00,12.90
2017,09,28,00,01,12.90
2017,09,28,00,02,12.90
2017,09,28,00,03,12.90
2017,09,28,00,04,12.90
2017,09,28,00,05,12.90
2017,09,28,00,06,12.90
2017,09,28,00,07,12.90
2017,09,28,00,08,12.90
2017,09,28,00,09,12.90
2017,09,28,00,10,12.90
2017,09,28,00,11,12.90
2017,09,28,00,12,12.90
2017,09,28,00,13,12.90
2017,09,28,00,14,13.00
2017,09,28,00,15,13.00
2017,09,28,00,16,13.00
2017,09,28,00,17,13.00
2017,09,28,00,18,13.00
2017,09,28,00,19,12.90
2017,09,28,00,20,12.90
2017,09,28,00,21,12.90
2017,09,28,00,22,12.90
2017,09,28,00,23,12.90
2017,09,28,00,24,12.90
2017,09,28,00,25,12.90
2017,09,28,00,26,12.90
2017,09,28,00,27,12.90
2017,09,28,00,28,12.90
2017,09,28,00,29,12.80
2017,09,28,00,30,12.80
2017,09,28,00,31,12.80
2017,09,28,00,32,12.90
2017,09,28,00,33,12.90
2017,09,28,00,34,12.90
2017,09,28,00,35,12.90
2017,09,28,00,36,12.90
2017,09,28,00,37,12.90
2017,09,28,00,38,12.90
2017,09,28,00,39,12.90
2017,09,28,00,40,12.90
2017,09,28,00,41,12.90
2017,09,28,00,42,13.00
2017,09,28,00,43,13.00
2017,09,28,00,44,13.00
2017,09,28,00,45,13.00
2017,09,28,00,46,13.00
2017,09,28,00,47,12.90
2017,09,28,00,48,12.90
2017,09,28,00,49,12.90
2017,09,28,00,50,12.90
2017,09,28,00,51,12.90
2017,09,28,00,52,12.90
2017,09,28,00,53,12.80
2017,09,28,00,54,12.80
2017,09,28,00,55,12.80
2017,09,28,00,56,12.80
2017,09,28,00,57,12.90
2017,09,28,00,58,12.90
2017,09,28,00,59,12.90
2017,09,28,01,00,12.90
2017,09,28,01,01,12.90
2017,09,28,01,02,12.90
2017,09,28,01,03,12.90
2017,09,28,01,04,12.90
2017,09,28,01,05,12.90
2017,09,28,01,06,13.00
2017,09,28,01,07,13.00
2017,09,28,01,08,13.00
2017,09,28,01,09,13.10
2017,09,28,01,10,13.10
2017,09,28,01,11,13.10
2017,09,28,01,12,13.10
2017,09,28,01,13,13.10
2017,09,28,01,14,13.10
2017,09,28,01,15,13.10
2017,09,28,01,16,13.10
2017,09,28,01,17,13.10
2017,09,28,01,18,13.00
2017,09,28,01,19,13.00
2017,09,28,01,20,13.00
2017,09,28,01,21,13.00
2017,09,28,01,22,12.90
2017,09,28,01,23,12.90
2017,09,28,01,24,12.90
2017,09,28,01,25,12.90
2017,09,28,01,26,12.90
2017,09,28,01,27,13.00
2017,09,28,01,28,13.00
2017,09,28,01,29,13.00
2017,09,28,01,30,13.00
2017,09,28,01,31,13.00
2017,09,28,01,32,13.00
2017,09,28,01,33,13.00
2017,09,28,01,34,13.00
2017,09,28,01,35,12.90
2017,09,28,01,36,12.90
2017,09,28,01,37,12.90
2017,09,28,01,38,12.80
2017,09,28,01,39,12.80
2017,09,28,01,40,12.80
2017,09,28,01,41,12.80
2017,09,28,01,42,12.70
2017,09,28,01,43,12.70
2017,09,28,01,44,12.70
2017,09,28,01,45,12.80
2017,09,28,01,46,12.80
2017,09,28,01,47,12.80
2017,09,28,01,48,12.80
2017,09,28,01,49,12.80
2017,09,28,01,50,12.90
2017,09,28,01,51,12.90
2017,09,28,01,52,12.90
2017,09,28,01,53,12.90
2017,09,28,01,54,12.90
2017,09,28,01,55,12.90
2017,09,28,01,56,12.90
2017,09,28,01,57,12.80
2017,09,28,01,58,12.80
2017,09,28,01,59,12.80
2017,09,28,02,00,12.80
2017,09,28,02,01,12.80
2017,09,28,02,02,12.90
2017,09,28,02,03,12.90
2017,09,28,02,04,12.90
2017,09,28,02,05,12.90
2017,09,28,02,06,12.80
2017,09,28,02,07,12.80
2017,09,28,02,08,12.80
2017,09,28,02,09,12.90
2017,09,28,02,10,12.90
2017,09,28,02,11,12.90
2017,09,28,02,12,13.00
2017,09,28,02,13,13.00
2017,09,28,02,14,13.00
2017,09,28,02,15,13.00
2017,09,28,02,16,13.00
2017,09,28,02,17,13.00
2017,09,28,02,18,13.00
2017,09,28,02,19,13.00
2017,09,28,02,20,13.00
2017,09,28,02,21,12.90
2017,09,28,02,22,12.90
2017,09,28,02,23,12.80
2017,09,28,02,24,12.80
2017,09,28,02,25,12.80
2017,09,28,02,26,12.70
2017,09,28,02,27,12.70
2017,09,28,02,28,12.70
2017,09,28,02,29,12.60
2017,09,28,02,30,12.60
2017,09,28,02,31,12.60
2017,09,28,02,32,12.60
2017,09,28,02,33,12.60
2017,09,28,02,34,12.60
2017,09,28,02,35,12.60
2017,09,28,02,36,12.60
2017,09,28,02,37,12.60
2017,09,28,02,38,12.60
2017,09,28,02,39,12.60
2017,09,28,02,40,12.60
2017,09,28,02,41,12.60
2017,09,28,02,42,12.60
2017,09,28,02,43,12.60
2017,09,28,02,44,12.60
2017,09,28,02,45,12.50
2017,09,28,02,46,12.50
2017,09,28,02,47,12.40
2017,09,28,02,48,12.40
2017,09,28,02,49,12.40
2017,09,28,02,50,12.40
2017,09,28,02,51,12.50
2017,09,28,02,52,12.60
2017,09,28,02,53,12.60
2017,09,28,02,54,12.80
2017,09,28,02,55,12.90
2017,09,28,02,56,12.90
2017,09,28,02,57,13.00
2017,09,28,02,58,13.10
2017,09,28,02,59,13.10
2017,09,28,03,00,13.10
2017,09,28,03,01,13.00
2017,09,28,03,02,13.00
2017,09,28,03,03,12.90
2017,09,28,03,04,12.90
2017,09,28,03,05,12.80
2017,09,28,03,06,12.80
2017,09,28,03,07,12.70
2017,09,28,03,08,12.70
2017,09,28,03,09,12.70
2017,09,28,03,10,12.60
2017,09,28,03,11,12.60
2017,09,28,03,12,12.60
2017,09,28,03,13,12.50
2017,09,28,03,14,12.50
2017,09,28,03,15,12.50
2017,09,28,03,16,12.40
2017,09,28,03,17,12.40
2017,09,28,03,18,12.40
2017,09,28,03,19,12.40
2017,09,28,03,20,12.30
2017,09,28,03,21,12.30
2017,09,28,03,22,12.30
2017,09,28,03,23,12.30
2017,09,28,03,24,12.30
2017,09,28,03,25,12.30
2017,09,28,03,26,12.30
2017,09,28,03,27,12.30
2017,09,28,03,28,12.30
2017,09,28,03,29,12.30
2017,09,28,03,30,12.30
2017,09,28,03,31,12.30
2017,09,28,03,32,12.30
2017,09,28,03,33,12.20
2017,09,28,03,34,12.20
2017,09,28,03,35,12.20
2017,09,28,03,36,12.20
2017,09,28,03,37,12.10
2017,09,28,03,38,12.10
2017,09,28,03,39,12.10
2017,09,28,03,40,12.00
2017,09,28,03,41,12.00
2017,09,28,03,42,12.00
2017,09,28,03,43,11.90
2017,09,28,03,44,11.90
2017,09,28,03,45,11.90
2017,09,28,03,46,11.90
2017,09,28,03,47,12.00
2017,09,28,03,48,12.00
2017,09,28,03,49,12.00
2017,09,28,03,50,12.00
2017,09,28,03,51,12.10
2017,09,28,03,52,12.10
2017,09,28,03,53,12.10
2017,09,28,03,54,12.20
2017,09,28,03,55,12.20
2017,09,28,03,56,12.20
2017,09,28,03,57,12.30
2017,09,28,03,58,12.30
2017,09,28,03,59,12.30
2017,09,28,04,00,12.30
2017,09,28,04,01,12.40
2017,09,28,04,02,12.40
2017,09,28,04,03,12.40
2017,09,28,04,04,12.40
2017,09,28,04,05,12.40
2017,09,28,04,06,12.40
2017,09,28,04,07,12.40
2017,09,28,04,08,12.40
2017,09,28,04,09,12.40
2017,09,28,04,10,12.30
2017,09,28,04,11,12.30
2017,09,28,04,12,12.30
2017,09,28,04,13,12.30
2017,09,28,04,14,12.30
2017,09,28,04,15,12.30
2017,09,28,04,16,12.30
2017,09,28,04,17,12.30
2017,09,28,04,18,12.30
2017,09,28,04,19,12.30
2017,09,28,04,20,12.30
2017,09,28,04,21,12.20
2017,09,28,04,22,12.20
2017,09,28,04,23,12.20
2017,09,28,04,24,12.10
2017,09,28,04,25,12.10
2017,09,28,04,26,12.10
2017,09,28,04,27,12.10
2017,09,28,04,28,12.10
2017,09,28,04,29,12.10
2017,09,28,04,30,12.10
2017,09,28,04,31,12.10
2017,09,28,04,32,12.00
2017,09,28,04,33,12.00
2017,09,28,04,34,12.00
2017,09,28,04,35,12.00
2017,09,28,04,36,12.00
2017,09,28,04,37,11.90
2017,09,28,04,38,11.90
2017,09,28,04,39,11.90
2017,09,28,04,40,11.90
2017,09,28,04,41,11.90
2017,09,28,04,42,11.90
2017,09,28,04,43,11.90
2017,09,28,04,44,11.90
2017,09,28,04,45,11.90
2017,09,28,04,46,11.90
2017,09,28,04,47,11.90
2017,09,28,04,48,12.00
2017,09,28,04,49,12.00
2017,09,28,04,50,12.00
2017,09,28,04,51,12.00
2017,09,28,04,52,12.00
2017,09,28,04,53,11.90
2017,09,28,04,54,11.90
2017,09,28,04,55,11.90
2017,09,28,04,56,11.80
2017,09,28,04,57,11.80
2017,09,28,04,58,11.80
2017,09,28,04,59,11.80
2017,09,28,05,00,11.80
2017,09,28,05,01,11.70
2017,09,28,05,02,11.70
2017,09,28,05,03,11.70
2017,09,28,05,04,11.70
2017,09,28,05,05,11.70
2017,09,28,05,06,11.70
2017,09,28,05,07,11.80
2017,09,28,05,08,11.80
2017,09,28,05,09,11.70
2017,09,28,05,10,11.70
2017,09,28,05,11,11.70
2017,09,28,05,12,11.70
2017,09,28,05,13,11.70
2017,09,28,05,14,11.70
2017,09,28,05,15,11.80
2017,09,28,05,16,11.80
2017,09,28,05,17,11.80
2017,09,28,05,18,11.80
2017,09,28,05,19,11.80
2017,09,28,05,20,11.80
2017,09,28,05,21,11.80
2017,09,28,05,22,11.80
2017,09,28,05,23,11.70
2017,09,28,05,24,11.70
2017,09,28,05,25,11.70
2017,09,28,05,26,11.60
2017,09,28,05,27,11.60
2017,09,28,05,28,11.60
2017,09,28,05,29,11.60
2017,09,28,05,30,11.50
2017,09,28,05,31,11.50
2017,09,28,05,32,11.50
2017,09,28,05,33,11.50
2017,09,28,05,34,11.60
2017,09,28,05,35,11.70
2017,09,28,05,36,11.80
2017,09,28,05,37,11.80
2017,09,28,05,38,11.80
2017,09,28,05,39,11.80
2017,09,28,05,40,11.80
2017,09,28,05,41,11.90
2017,09,28,05,42,11.90
2017,09,28,05,43,11.90
2017,09,28,05,44,11.90
2017,09,28,05,45,11.80
2017,09,28,05,46,11.80
2017,09,28,05,47,11.80
2017,09,28,05,48,11.80
2017,09,28,05,49,11.80
2017,09,28,05,50,11.80
2017,09,28,05,51,11.70
2017,09,28,05,52,11.70
2017,09,28,05,53,11.70
2017,09,28,05,54,11.80
2017,09,28,05,55,11.80
2017,09,28,05,56,11.80
2017,09,28,05,57,11.80
2017,09,28,05,58,11.80
2017,09,28,05,59,11.80
2017,09,28,06,00,11.80
2017,09,28,06,01,11.80
2017,09,28,06,02,11.80
2017,09,28,06,03,11.90
2017,09,28,06,04,11.90
2017,09,28,06,05,11.90
2017,09,28,06,06,11.90
2017,09,28,06,07,11.90
2017,09,28,06,08,11.90
2017,09,28,06,09,11.90
2017,09,28,06,10,11.90
2017,09,28,06,11,11.90
2017,09,28,06,12,11.90
2017,09,28,06,13,11.90
2017,09,28,06,14,11.90
2017,09,28,06,15,11.90
2017,09,28,06,16,11.90
2017,09,28,06,17,11.90
2017,09,28,06,18,11.90
2017,09,28,06,19,11.90
2017,09,28,06,20,11.90
2017,09,28,06,21,11.90
2017,09,28,06,22,11.90
2017,09,28,06,23,11.90
2017,09,28,06,24,11.90
2017,09,28,06,25,11.90
2017,09,28,06,26,11.90
2017,09,28,06,27,11.80
2017,09,28,06,28,11.90
2017,09,28,06,29,11.90
2017,09,28,06,30,11.90
2017,09,28,06,31,12.00
2017,09,28,06,32,12.00
2017,09,28,06,33,12.00
2017,09,28,06,34,12.10
2017,09,28,06,35,12.10
2017,09,28,06,36,12.10
2017,09,28,06,37,12.10
2017,09,28,06,38,12.10
2017,09,28,06,39,12.10
2017,09,28,06,40,12.10
2017,09,28,06,41,12.10
2017,09,28,06,42,12.10
2017,09,28,06,43,12.10
2017,09,28,06,44,12.20
2017,09,28,06,45,12.20
2017,09,28,06,46,12.10
2017,09,28,06,47,12.10
2017,09,28,06,48,12.10
2017,09,28,06,49,12.10
2017,09,28,06,50,12.20
2017,09,28,06,51,12.20
2017,09,28,06,52,12.30
2017,09,28,06,53,12.40
2017,09,28,06,54,12.50
2017,09,28,06,55,12.50
2017,09,28,06,56,12.60
2017,09,28,06,57,12.70
2017,09,28,06,58,12.70
2017,09,28,06,59,12.70
2017,09,28,07,00,12.70
2017,09,28,07,01,12.80
2017,09,28,07,02,12.80
2017,09,28,07,03,12.80
2017,09,28,07,04,12.80
2017,09,28,07,05,12.80
2017,09,28,07,06,12.80
2017,09,28,07,07,12.90
2017,09,28,07,08,12.90
2017,09,28,07,09,12.90
2017,09,28,07,10,12.90
2017,09,28,07,11,12.90
2017,09,28,07,12,12.90
2017,09,28,07,13,12.90
2017,09,28,07,14,12.90
2017,09,28,07,15,12.90
2017,09,28,07,16,12.80
2017,09,28,07,17,12.80
2017,09,28,07,18,12.80
2017,09,28,07,19,12.70
2017,09,28,07,20,12.70
2017,09,28,07,21,12.70
2017,09,28,07,22,12.70
2017,09,28,07,23,12.70
2017,09,28,07,24,12.70
2017,09,28,07,25,12.70
2017,09,28,07,26,12.70
2017,09,28,07,27,12.70
2017,09,28,07,28,12.80
2017,09,28,07,29,12.80
2017,09,28,07,30,12.80
2017,09,28,07,31,12.80
2017,09,28,07,32,12.80
2017,09,28,07,33,12.80
2017,09,28,07,34,12.90
2017,09,28,07,35,12.90
2017,09,28,07,36,13.00
2017,09,28,07,37,13.10
2017,09,28,07,38,13.10
2017,09,28,07,39,13.20
2017,09,28,07,40,13.20
2017,09,28,07,41,13.30
2017,09,28,07,42,13.30
2017,09,28,07,43,13.30
2017,09,28,07,44,13.30
2017,09,28,07,45,13.30
2017,09,28,07,46,13.30
2017,09,28,07,47,13.30
2017,09,28,07,48,13.40
2017,09,28,07,49,13.40
2017,09,28,07,50,13.40
2017,09,28,07,51,13.40
2017,09,28,07,52,13.40
2017,09,28,07,53,13.50
2017,09,28,07,54,13.50
2017,09,28,07,55,13.50
2017,09,28,07,56,13.60
2017,09,28,07,57,13.70
2017,09,28,07,58,13.70
2017,09,28,07,59,13.70
2017,09,28,08,00,13.70
2017,09,28,08,01,13.70
2017,09,28,08,02,13.70
2017,09,28,08,03,13.70
2017,09,28,08,04,13.80
2017,09,28,08,05,13.80
2017,09,28,08,06,13.80
2017,09,28,08,07,13.80
2017,09,28,08,08,13.80
2017,09,28,08,09,13.90
2017,09,28,08,10,13.90
2017,09,28,08,11,14.00
2017,09,28,08,12,14.00
2017,09,28,08,13,14.10
2017,09,28,08,14,14.10
2017,09,28,08,15,14.10
2017,09,28,08,16,14.20
2017,09,28,08,17,14.20
2017,09,28,08,18,14.20
2017,09,28,08,19,14.20
2017,09,28,08,20,14.20
2017,09,28,08,21,14.20
2017,09,28,08,22,14.30
2017,09,28,08,23,14.30
2017,09,28,08,24,14.30
2017,09,28,08,25,14.40
2017,09,28,08,26,14.40
2017,09,28,08,27,14.50
2017,09,28,08,28,14.60
2017,09,28,08,29,14.60
2017,09,28,08,30,14.70
2017,09,28,08,31,14.80
2017,09,28,08,32,14.90
2017,09,28,08,33,15.00
2017,09,28,08,34,15.10
2017,09,28,08,35,15.20
2017,09,28,08,36,15.30
2017,09,28,08,37,15.30
2017,09,28,08,38,15.40
2017,09,28,08,39,15.40
2017,09,28,08,40,15.50
2017,09,28,08,41,15.60
2017,09,28,08,42,15.70
2017,09,28,08,43,15.80
2017,09,28,08,44,15.80
2017,09,28,08,45,15.90
2017,09,28,08,46,16.10
2017,09,28,08,47,16.20
2017,09,28,08,48,16.30
2017,09,28,08,49,16.40
2017,09,28,08,50,16.50
2017,09,28,08,51,16.60
2017,09,28,08,52,16.80
2017,09,28,08,53,16.80
2017,09,28,08,54,16.90
2017,09,28,08,55,17.00
2017,09,28,08,56,17.10
2017,09,28,08,57,17.20
2017,09,28,08,58,17.30
2017,09,28,08,59,17.40
2017,09,28,09,00,17.50
2017,09,28,09,01,17.60
2017,09,28,09,02,17.60
2017,09,28,09,03,17.70
2017,09,28,09,04,17.80
2017,09,28,09,05,17.90
2017,09,28,09,06,18.00
2017,09,28,09,07,18.10
2017,09,28,09,08,18.10
2017,09,28,09,09,18.20
2017,09,28,09,10,18.30
2017,09,28,09,11,18.30
2017,09,28,09,12,18.40
2017,09,28,09,13,18.50
2017,09,28,09,14,18.50
2017,09,28,09,15,18.60
2017,09,28,09,16,18.70
2017,09,28,09,17,18.80
2017,09,28,09,18,18.80
2017,09,28,09,19,18.90
2017,09,28,09,20,19.00
2017,09,28,09,21,19.10
2017,09,28,09,22,19.10
2017,09,28,09,23,19.20
2017,09,28,09,24,19.20
2017,09,28,09,25,19.30
2017,09,28,09,26,19.30
2017,09,28,09,27,19.30
2017,09,28,09,28,19.30
2017,09,28,09,29,19.40
2017,09,28,09,30,19.40
2017,09,28,09,31,19.50
2017,09,28,09,32,19.60
2017,09,28,09,33,19.60
2017,09,28,09,34,19.70
2017,09,28,09,35,19.70
2017,09,28,09,36,19.70
2017,09,28,09,37,19.70
2017,09,28,09,38,19.70
2017,09,28,09,39,19.70
2017,09,28,09,40,19.70
2017,09,28,09,41,19.70
2017,09,28,09,42,19.70
2017,09,28,09,43,19.80
2017,09,28,09,44,19.80
2017,09,28,09,45,19.80
2017,09,28,09,46,19.70
2017,09,28,09,47,19.70
2017,09,28,09,48,19.60
2017,09,28,09,49,19.60
2017,09,28,09,50,19.60
2017,09,28,09,51,19.50
2017,09,28,09,52,19.50
2017,09,28,09,53,19.40
2017,09,28,09,54,19.40
2017,09,28,09,55,19.40
2017,09,28,09,56,19.50
2017,09,28,09,57,19.50
2017,09,28,09,58,19.50
2017,09,28,09,59,19.60
2017,09,28,10,00,19.60
2017,09,28,10,01,19.60
2017,09,28,10,02,19.60
2017,09,28,10,03,19.70
2017,09,28,10,04,19.70
2017,09,28,10,05,19.80
2017,09,28,10,06,19.80
2017,09,28,10,07,19.90
2017,09,28,10,08,19.90
2017,09,28,10,09,19.90
2017,09,28,10,10,19.90
2017,09,28,10,11,20.00
2017,09,28,10,12,20.00
2017,09,28,10,13,20.10
2017,09,28,10,14,20.10
2017,09,28,10,15,20.20
2017,09,28,10,16,20.20
2017,09,28,10,17,20.30
2017,09,28,10,18,20.30
2017,09,28,10,19,20.30
2017,09,28,10,20,20.30
2017,09,28,10,21,20.30
2017,09,28,10,22,20.30
2017,09,28,10,23,20.30
2017,09,28,10,24,20.30
2017,09,28,10,25,20.30
2017,09,28,10,26,20.30
2017,09,28,10,27,20.30
2017,09,28,10,28,20.40
2017,09,28,10,29,20.40
2017,09,28,10,30,20.50
2017,09,28,10,31,20.50
2017,09,28,10,32,20.60
2017,09,28,10,33,20.60
2017,09,28,10,34,20.70
2017,09,28,10,35,20.70
2017,09,28,10,36,20.80
2017,09,28,10,37,20.70
2017,09,28,10,38,20.70
2017,09,28,10,39,20.80
2017,09,28,10,40,20.80
2017,09,28,10,41,20.80
2017,09,28,10,42,20.80
2017,09,28,10,43,20.80
2017,09,28,10,44,20.90
2017,09,28,10,45,20.90
2017,09,28,10,46,20.90
2017,09,28,10,47,21.00
2017,09,28,10,48,21.00
2017,09,28,10,49,21.10
2017,09,28,10,50,21.10
2017,09,28,10,51,21.10
2017,09,28,10,52,21.20
2017,09,28,10,53,21.20
2017,09,28,10,54,21.30
2017,09,28,10,55,21.30
2017,09,28,10,56,21.40
2017,09,28,10,57,21.40
2017,09,28,10,58,21.50
2017,09,28,10,59,21.50
2017,09,28,11,00,21.60
2017,09,28,11,01,21.60
2017,09,28,11,02,21.70
2017,09,28,11,03,21.70
2017,09,28,11,04,21.70
2017,09,28,11,05,21.70
2017,09,28,11,06,21.80
2017,09,28,11,07,21.80
2017,09,28,11,08,21.80
2017,09,28,11,09,21.80
2017,09,28,11,10,21.90
2017,09,28,11,11,21.90
2017,09,28,11,12,22.00
2017,09,28,11,13,22.00
2017,09,28,11,14,22.00
2017,09,28,11,15,22.10
2017,09,28,11,16,22.10
2017,09,28,11,17,22.10
2017,09,28,11,18,22.20
2017,09,28,11,19,22.20
2017,09,28,11,20,22.20
2017,09,28,11,21,22.20
2017,09,28,11,22,22.20
2017,09,28,11,23,22.20
2017,09,28,11,24,22.20
2017,09,28,11,25,22.30
2017,09,28,11,26,22.30
2017,09,28,11,27,22.40
2017,09,28,11,28,22.40
2017,09,28,11,29,22.50
2017,09,28,11,30,22.50
2017,09,28,11,31,22.60
2017,09,28,11,32,22.70
2017,09,28,11,33,22.70
2017,09,28,11,34,22.70
2017,09,28,11,35,22.60
2017,09,28,11,36,22.60
2017,09,28,11,37,22.60
2017,09,28,11,38,22.60
2017,09,28,11,39,22.60
2017,09,28,11,40,22.60
2017,09,28,11,41,22.70
2017,09,28,11,42,22.70
2017,09,28,11,43,22.70
2017,09,28,11,44,22.60
2017,09,28,11,45,22.60
2017,09,28,11,46,22.60
2017,09,28,11,47,22.60
2017,09,28,11,48,22.60
2017,09,28,11,49,22.60
2017,09,28,11,50,22.50
2017,09,28,11,51,22.50
2017,09,28,11,52,22.40
2017,09,28,11,53,22.40
2017,09,28,11,54,22.50
2017,09,28,11,55,22.50
2017,09,28,11,56,22.60
2017,09,28,11,57,22.70
2017,09,28,11,58,22.80
2017,09,28,11,59,22.80
2017,09,28,12,00,22.90
2017,09,28,12,01,23.00
2017,09,28,12,02,23.10
2017,09,28,12,03,23.20
2017,09,28,12,04,23.20
2017,09,28,12,05,23.30
2017,09,28,12,06,23.30
2017,09,28,12,07,23.30
2017,09,28,12,08,23.40
2017,09,28,12,09,23.40
2017,09,28,12,10,23.40
2017,09,28,12,11,23.50
2017,09,28,12,12,23.50
2017,09,28,12,13,23.60
2017,09,28,12,14,23.50
2017,09,28,12,15,23.50
2017,09,28,12,16,23.50
2017,09,28,12,17,23.40
2017,09,28,12,18,23.40
2017,09,28,12,19,23.50
2017,09,28,12,20,23.50
2017,09,28,12,21,23.40
2017,09,28,12,22,23.40
2017,09,28,12,23,23.40
2017,09,28,12,24,23.40
2017,09,28,12,25,23.40
2017,09,28,12,26,23.40
2017,09,28,12,27,23.40
2017,09,28,12,28,23.50
2017,09,28,12,29,23.50
2017,09,28,12,30,23.60
2017,09,28,12,31,23.70
2017,09,28,12,32,23.70
2017,09,28,12,33,23.80
2017,09,28,12,34,23.90
2017,09,28,12,35,23.90
2017,09,28,12,36,24.00
2017,09,28,12,37,24.10
2017,09,28,12,38,24.10
2017,09,28,12,39,24.20
2017,09,28,12,40,24.20
2017,09,28,12,41,24.20
2017,09,28,12,42,24.20
2017,09,28,12,43,24.20
2017,09,28,12,44,24.20
2017,09,28,12,45,24.20
2017,09,28,12,46,24.20
2017,09,28,12,47,24.30
2017,09,28,12,48,24.30
2017,09,28,12,49,24.40
2017,09,28,12,50,24.50
2017,09,28,12,51,24.50
2017,09,28,12,52,24.60
2017,09,28,12,53,24.60
2017,09,28,12,54,24.60
2017,09,28,12,55,24.60
2017,09,28,12,56,24.50
2017,09,28,12,57,24.50
2017,09,28,12,58,24.60
2017,09,28,12,59,24.60
2017,09,28,13,00,24.60
2017,09,28,13,01,24.60
2017,09,28,13,02,24.60
2017,09,28,13,03,24.60
2017,09,28,13,04,24.70
2017,09,28,13,05,24.70
2017,09,28,13,06,24.70
2017,09,28,13,07,24.70
2017,09,28,13,08,24.70
2017,09,28,13,09,24.80
2017,09,28,13,10,24.80
2017,09,28,13,11,24.90
2017,09,28,13,12,24.90
2017,09,28,13,13,24.90
2017,09,28,13,14,24.90
2017,09,28,13,15,24.90
2017,09,28,13,16,24.90
2017,09,28,13,17,24.90
2017,09,28,13,18,24.80
2017,09,28,13,19,24.80
2017,09,28,13,20,24.70
2017,09,28,13,21,24.70
2017,09,28,13,22,24.70
2017,09,28,13,23,24.70
2017,09,28,13,24,24.70
2017,09,28,13,25,24.70
2017,09,28,13,26,24.70
2017,09,28,13,27,24.70
2017,09,28,13,28,24.70
2017,09,28,13,29,24.70
2017,09,28,13,30,24.70
2017,09,28,13,31,24.70
2017,09,28,13,32,24.70
2017,09,28,13,33,24.70
2017,09,28,13,34,24.80
2017,09,28,13,35,24.80
2017,09,28,13,36,24.80
2017,09,28,13,37,24.80
2017,09,28,13,38,24.90
2017,09,28,13,39,24.90
2017,09,28,13,40,25.00
2017,09,28,13,41,25.00
2017,09,28,13,42,25.00
2017,09,28,13,43,25.00
2017,09,28,13,44,25.10
2017,09,28,13,45,25.10
2017,09,28,13,46,25.10
2017,09,28,13,47,25.10
2017,09,28,13,48,25.20
2017,09,28,13,49,25.20
2017,09,28,13,50,25.20
2017,09,28,13,51,25.30
2017,09,28,13,52,25.30
2017,09,28,13,53,25.30
2017,09,28,13,54,25.40
2017,09,28,13,55,25.50
2017,09,28,13,56,25.50
2017,09,28,13,57,25.50
2017,09,28,13,58,25.50
2017,09,28,13,59,25.50
2017,09,28,14,00,25.50
2017,09,28,14,01,25.40
2017,09,28,14,02,25.40
2017,09,28,14,03,25.30
2017,09,28,14,04,25.30
2017,09,28,14,05,25.30
2017,09,28,14,06,25.30
2017,09,28,14,07,25.30
2017,09,28,14,08,25.40
2017,09,28,14,09,25.40
2017,09,28,14,10,25.40
2017,09,28,14,11,25.40
2017,09,28,14,12,25.40
2017,09,28,14,13,25.40
2017,09,28,14,14,25.40
2017,09,28,14,15,25.30
2017,09,28,14,16,25.30
2017,09,28,14,17,25.30
2017,09,28,14,18,25.30
2017,09,28,14,19,25.30
2017,09,28,14,20,25.10
2017,09,28,14,21,25.00
2017,09,28,14,22,24.80
2017,09,28,14,23,24.60
2017,09,28,14,24,24.50
2017,09,28,14,25,24.20
2017,09,28,14,26,23.90
2017,09,28,14,27,23.60
2017,09,28,14,28,23.40
2017,09,28,14,29,23.20
2017,09,28,14,30,23.10
2017,09,28,14,31,23.00
2017,09,28,14,32,22.90
2017,09,28,14,33,22.80
2017,09,28,14,34,22.80
2017,09,28,14,35,22.90
2017,09,28,14,36,23.00
2017,09,28,14,37,23.10
2017,09,28,14,38,23.20
2017,09,28,14,39,23.20
2017,09,28,14,40,23.10
2017,09,28,14,41,23.10
2017,09,28,14,42,23.00
2017,09,28,14,43,23.00
2017,09,28,14,44,23.00
2017,09,28,14,45,23.10
2017,09,28,14,46,23.20
2017,09,28,14,47,23.40
2017,09,28,14,48,23.40
2017,09,28,14,49,23.30
2017,09,28,14,50,23.20
2017,09,28,14,51,23.10
2017,09,28,14,52,23.10
2017,09,28,14,53,23.10
2017,09,28,14,54,23.10
2017,09,28,14,55,23.20
2017,09,28,14,56,23.30
2017,09,28,14,57,23.40
2017,09,28,14,58,23.50
2017,09,28,14,59,23.60
2017,09,28,15,00,23.60
2017,09,28,15,01,23.70
2017,09,28,15,02,23.80
2017,09,28,15,03,23.90
2017,09,28,15,04,23.90
2017,09,28,15,05,24.10
2017,09,28,15,06,24.20
2017,09,28,15,07,24.30
2017,09,28,15,08,24.40
2017,09,28,15,09,24.30
2017,09,28,15,10,24.10
2017,09,28,15,11,23.90
2017,09,28,15,12,23.70
2017,09,28,15,13,23.50
2017,09,28,15,14,23.40
2017,09,28,15,15,23.30
2017,09,28,15,16,23.10
2017,09,28,15,17,22.90
2017,09,28,15,18,22.80
2017,09,28,15,19,22.70
2017,09,28,15,20,22.60
2017,09,28,15,21,22.40
2017,09,28,15,22,22.30
2017,09,28,15,23,22.20
2017,09,28,15,24,22.10
2017,09,28,15,25,22.00
2017,09,28,15,26,22.00
2017,09,28,15,27,21.90
2017,09,28,15,28,21.80
2017,09,28,15,29,21.70
2017,09,28,15,30,21.70
2017,09,28,15,31,21.60
2017,09,28,15,32,21.50
2017,09,28,15,33,21.30
2017,09,28,15,34,21.20
2017,09,28,15,35,21.00
2017,09,28,15,36,20.70
2017,09,28,15,37,20.60
2017,09,28,15,38,20.50
2017,09,28,15,39,20.30
2017,09,28,15,40,20.30
2017,09,28,15,41,20.30
2017,09,28,15,42,20.30
2017,09,28,15,43,20.30
2017,09,28,15,44,20.30
2017,09,28,15,45,20.30
2017,09,28,15,46,20.30
2017,09,28,15,47,20.30
2017,09,28,15,48,20.30
2017,09,28,15,49,20.30
2017,09,28,15,50,20.30
2017,09,28,15,51,20.40
2017,09,28,15,52,20.50
2017,09,28,15,53,20.50
2017,09,28,15,54,20.60
2017,09,28,15,55,20.70
2017,09,28,15,56,20.70
2017,09,28,15,57,20.70
2017,09,28,15,58,20.70
2017,09,28,15,59,20.70
2017,09,28,16,00,20.60
2017,09,28,16,01,20.60
2017,09,28,16,02,20.50
2017,09,28,16,03,20.50
2017,09,28,16,04,20.50
2017,09,28,16,05,20.50
2017,09,28,16,06,20.60
2017,09,28,16,07,20.60
2017,09,28,16,08,20.70
2017,09,28,16,09,20.80
2017,09,28,16,10,20.80
2017,09,28,16,11,20.80
2017,09,28,16,12,20.90
2017,09,28,16,13,20.90
2017,09,28,16,14,21.00
2017,09,28,16,15,21.10
2017,09,28,16,16,21.20
2017,09,28,16,17,21.30
2017,09,28,16,18,21.40
2017,09,28,16,19,21.50
2017,09,28,16,20,21.60
2017,09,28,16,21,21.60
2017,09,28,16,22,21.70
2017,09,28,16,23,21.70
2017,09,28,16,24,21.80
2017,09,28,16,25,21.80
2017,09,28,16,26,21.80
2017,09,28,16,27,21.80
2017,09,28,16,28,21.80
2017,09,28,16,29,21.90
2017,09,28,16,30,21.90
2017,09,28,16,31,21.80
2017,09,28,16,32,21.80
2017,09,28,16,33,21.80
2017,09,28,16,34,21.70
2017,09,28,16,35,21.70
2017,09,28,16,36,21.70
2017,09,28,16,37,21.70
2017,09,28,16,38,21.70
2017,09,28,16,39,21.70
2017,09,28,16,40,21.80
2017,09,28,16,41,21.80
2017,09,28,16,42,21.80
2017,09,28,16,43,21.70
2017,09,28,16,44,21.70
2017,09,28,16,45,21.70
2017,09,28,16,46,21.70
2017,09,28,16,47,21.60
2017,09,28,16,48,21.60
2017,09,28,16,49,21.50
2017,09,28,16,50,21.40
2017,09,28,16,51,21.40
2017,09,28,16,52,21.30
2017,09,28,16,53,21.30
2017,09,28,16,54,21.40
2017,09,28,16,55,21.40
2017,09,28,16,56,21.50
2017,09,28,16,57,21.60
2017,09,28,16,58,21.60
2017,09,28,16,59,21.70
2017,09,28,17,00,21.80
2017,09,28,17,01,21.80
2017,09,28,17,02,21.90
2017,09,28,17,03,22.00
2017,09,28,17,04,22.00
2017,09,28,17,05,22.10
2017,09,28,17,06,22.10
2017,09,28,17,07,22.10
2017,09,28,17,08,22.10
2017,09,28,17,09,22.10
2017,09,28,17,10,22.00
2017,09,28,17,11,22.00
2017,09,28,17,12,22.00
2017,09,28,17,13,22.00
2017,09,28,17,14,21.90
2017,09,28,17,15,21.90
2017,09,28,17,16,21.90
2017,09,28,17,17,21.90
2017,09,28,17,18,21.80
2017,09,28,17,19,21.80